DAL122C PANC-PAJN

Flight info

Callsign DAL122C
Flight time 1h 8m
Altitude 41000
Route NOEND4 NOEND CUSHI
Aircraft A359/H-SDE2E3GHIJ3J4J5LM1ORWXY/LB1D1

Departure

Time 2026-04-10 14:27
Airport Ted Stevens Anchorage International Airport (PANC)

Arrival

Time 2026-04-10 15:35
Airport Juneau International Airport (PAJN)
Time Latitude Longitude Altitude Speed Heading
2026-04-10 14:27 61.35217 -149.98245 9551 ft 271 kts 98°
2026-04-10 14:27 61.34461 -149.94567 9914 ft 286 kts 129°
2026-04-10 14:27 61.33107 -149.91411 10295 ft 301 kts 135°
2026-04-10 14:27 61.31600 -149.88182 10566 ft 320 kts 135°
2026-04-10 14:28 61.30013 -149.84750 10793 ft 338 kts 135°
2026-04-10 14:28 61.28368 -149.81145 11203 ft 348 kts 135°
2026-04-10 14:28 61.26875 -149.77126 11711 ft 356 kts 120°
2026-04-10 14:28 61.25970 -149.72301 12286 ft 362 kts 106°
2026-04-10 14:29 61.25318 -149.67216 12839 ft 367 kts 104°
2026-04-10 14:29 61.24690 -149.62122 13391 ft 371 kts 104°
2026-04-10 14:29 61.24091 -149.56881 14004 ft 375 kts 101°
2026-04-10 14:29 61.23584 -149.51542 14486 ft 379 kts 100°
2026-04-10 14:30 61.23079 -149.46168 15020 ft 381 kts 100°
2026-04-10 14:30 61.22554 -149.40739 15557 ft 384 kts 101°
2026-04-10 14:30 61.22020 -149.35294 16076 ft 387 kts 101°
2026-04-10 14:30 61.21217 -149.26784 16904 ft 392 kts 99°
2026-04-10 14:31 61.20157 -149.15606 17919 ft 398 kts 99°
2026-04-10 14:31 61.19520 -149.08985 18567 ft 400 kts 99°
2026-04-10 14:31 61.18976 -149.03383 18994 ft 403 kts 99°
2026-04-10 14:31 61.18416 -148.97666 19412 ft 406 kts 99°
2026-04-10 14:32 61.17852 -148.91903 19812 ft 410 kts 99°
2026-04-10 14:32 61.17280 -148.86098 20230 ft 413 kts 100°
2026-04-10 14:32 61.16702 -148.80256 20653 ft 415 kts 100°
2026-04-10 14:32 61.16117 -148.74378 21074 ft 418 kts 100°
2026-04-10 14:33 61.15527 -148.68477 21474 ft 421 kts 100°
2026-04-10 14:33 61.14927 -148.62514 21892 ft 423 kts 99°
2026-04-10 14:33 61.14324 -148.56543 22324 ft 426 kts 99°
2026-04-10 14:33 61.13721 -148.50603 22705 ft 429 kts 99°
2026-04-10 14:34 61.13034 -148.44570 23088 ft 433 kts 102°
2026-04-10 14:34 61.12212 -148.38559 23491 ft 436 kts 104°
2026-04-10 14:34 61.11311 -148.32547 23842 ft 439 kts 105°
2026-04-10 14:34 61.10374 -148.26513 24128 ft 442 kts 106°
2026-04-10 14:35 61.09423 -148.20447 24408 ft 445 kts 106°
2026-04-10 14:35 61.08470 -148.14335 24712 ft 448 kts 106°
2026-04-10 14:35 61.07518 -148.08193 25066 ft 450 kts 105°
2026-04-10 14:35 61.06578 -148.02104 25379 ft 452 kts 105°
2026-04-10 14:36 61.05622 -147.95904 25693 ft 456 kts 105°
2026-04-10 14:36 61.04657 -147.89650 26013 ft 459 kts 105°
2026-04-10 14:36 61.03686 -147.83358 26375 ft 462 kts 105°
2026-04-10 14:36 61.02705 -147.77029 26728 ft 465 kts 105°
2026-04-10 14:37 61.01713 -147.70662 27086 ft 468 kts 105°
2026-04-10 14:37 61.00713 -147.64260 27471 ft 471 kts 105°
2026-04-10 14:37 60.99702 -147.57813 27843 ft 474 kts 105°
2026-04-10 14:37 60.98694 -147.51410 28227 ft 478 kts 105°
2026-04-10 14:38 60.97660 -147.44881 28622 ft 481 kts 105°
2026-04-10 14:38 60.96616 -147.38308 29015 ft 485 kts 105°
2026-04-10 14:38 60.95562 -147.31692 29427 ft 488 kts 105°
2026-04-10 14:38 60.94500 -147.25032 29850 ft 491 kts 104°
2026-04-10 14:39 60.93426 -147.18331 30250 ft 495 kts 105°
2026-04-10 14:39 60.92340 -147.11586 30597 ft 499 kts 105°
2026-04-10 14:39 60.91244 -147.04816 30951 ft 502 kts 105°
2026-04-10 14:39 60.90136 -146.97996 31312 ft 505 kts 105°
2026-04-10 14:40 60.89018 -146.91144 31711 ft 507 kts 105°
2026-04-10 14:40 60.87906 -146.84358 32104 ft 509 kts 104°
2026-04-10 14:40 60.86772 -146.77452 32452 ft 512 kts 104°
2026-04-10 14:40 60.85628 -146.70511 32774 ft 515 kts 104°
2026-04-10 14:41 60.84474 -146.63538 33122 ft 518 kts 104°
2026-04-10 14:41 60.83309 -146.56547 33505 ft 519 kts 104°
2026-04-10 14:41 60.82139 -146.49534 33817 ft 521 kts 104°
2026-04-10 14:41 60.80962 -146.42490 34114 ft 524 kts 104°
2026-04-10 14:42 60.79774 -146.35416 34383 ft 526 kts 104°
2026-04-10 14:42 60.78577 -146.28318 34651 ft 529 kts 104°
2026-04-10 14:42 60.77388 -146.21302 34975 ft 529 kts 104°
2026-04-10 14:42 60.76182 -146.14224 35375 ft 528 kts 104°
2026-04-10 14:43 60.74971 -146.07140 35721 ft 528 kts 104°
2026-04-10 14:43 60.73757 -146.00058 36061 ft 528 kts 105°
2026-04-10 14:43 60.72543 -145.93000 36589 ft 524 kts 104°
2026-04-10 14:43 60.71334 -145.86008 37077 ft 521 kts 104°
2026-04-10 14:44 60.70128 -145.79037 37389 ft 521 kts 104°
2026-04-10 14:44 60.68936 -145.72152 37680 ft 522 kts 105°
2026-04-10 14:44 60.67719 -145.65174 37986 ft 522 kts 105°
2026-04-10 14:44 60.66496 -145.58203 38295 ft 522 kts 105°
2026-04-10 14:45 60.65270 -145.51245 38668 ft 521 kts 105°
2026-04-10 14:45 60.64044 -145.44312 38945 ft 521 kts 105°
2026-04-10 14:45 60.62812 -145.37370 39162 ft 521 kts 105°
2026-04-10 14:45 60.61580 -145.30450 39517 ft 517 kts 105°
2026-04-10 14:46 60.60354 -145.23595 39871 ft 514 kts 105°
2026-04-10 14:46 60.59129 -145.16760 40074 ft 515 kts 105°
2026-04-10 14:46 60.57900 -145.09915 40202 ft 516 kts 105°
2026-04-10 14:46 60.56682 -145.03157 40347 ft 516 kts 105°
2026-04-10 14:47 60.55442 -144.96309 40546 ft 516 kts 106°
2026-04-10 14:47 60.53725 -144.86870 40810 ft 517 kts 106°
2026-04-10 14:47 60.51223 -144.73193 41151 ft 517 kts 106°
2026-04-10 14:48 60.46173 -144.45881 41182 ft 516 kts 106°
2026-04-10 14:48 60.41078 -144.18717 41168 ft 517 kts 107°
2026-04-10 14:49 60.31282 -143.67529 41161 ft 515 kts 107°
2026-04-10 14:49 60.22225 -143.21352 41157 ft 516 kts 107°
2026-04-10 14:50 60.19559 -143.07963 41156 ft 516 kts 108°
2026-04-10 14:50 60.13785 -142.79265 41157 ft 516 kts 108°
2026-04-10 14:51 60.02883 -142.26157 41143 ft 515 kts 108°
2026-04-10 14:51 59.91843 -141.73751 41144 ft 516 kts 109°
2026-04-10 14:52 59.80486 -141.21192 41158 ft 517 kts 109°
2026-04-10 14:52 59.68896 -140.68882 41151 ft 519 kts 110°
2026-04-10 14:53 59.57086 -140.16876 41140 ft 518 kts 110°
2026-04-10 14:53 59.51380 -139.92195 41137 ft 518 kts 110°
2026-04-10 14:54 59.48396 -139.79399 41145 ft 517 kts 111°
2026-04-10 14:54 59.45385 -139.66571 41155 ft 516 kts 111°
2026-04-10 14:55 59.42367 -139.53782 41155 ft 516 kts 111°
2026-04-10 14:55 59.39339 -139.41030 41149 ft 516 kts 111°
2026-04-10 14:56 59.36316 -139.28370 41143 ft 516 kts 111°
2026-04-10 14:56 59.33262 -139.15653 41132 ft 515 kts 112°
2026-04-10 14:57 59.30201 -139.02987 41124 ft 514 kts 112°
2026-04-10 14:57 59.27130 -138.90353 41121 ft 514 kts 112°
2026-04-10 14:58 59.24047 -138.77741 41118 ft 514 kts 112°
2026-04-10 14:58 59.20973 -138.65233 41126 ft 514 kts 112°
2026-04-10 14:59 59.17872 -138.52691 41115 ft 513 kts 113°
2026-04-10 14:59 59.16326 -138.46470 40658 ft 509 kts 113°
2026-04-10 14:59 59.14776 -138.40248 39852 ft 512 kts 112°
2026-04-10 14:59 59.13213 -138.33981 39091 ft 516 kts 113°
2026-04-10 15:00 59.11638 -138.27685 38244 ft 518 kts 112°
2026-04-10 15:00 59.10072 -138.21453 37334 ft 521 kts 112°
2026-04-10 15:00 59.08475 -138.15114 36430 ft 523 kts 112°
2026-04-10 15:00 59.06869 -138.08755 35545 ft 525 kts 112°
2026-04-10 15:01 59.05256 -138.02385 34708 ft 525 kts 112°
2026-04-10 15:01 59.03638 -137.96014 33805 ft 527 kts 112°
2026-04-10 15:01 59.02016 -137.89648 32809 ft 527 kts 112°
2026-04-10 15:01 59.00386 -137.83273 31881 ft 527 kts 112°
2026-04-10 15:02 58.98761 -137.76937 31218 ft 522 kts 112°
2026-04-10 15:02 58.97170 -137.70762 30591 ft 516 kts 112°
2026-04-10 15:02 58.95574 -137.64584 29932 ft 510 kts 112°
2026-04-10 15:02 58.93995 -137.58479 29243 ft 504 kts 112°
2026-04-10 15:03 58.92436 -137.52457 28634 ft 497 kts 112°
2026-04-10 15:03 58.90894 -137.46509 28000 ft 492 kts 113°
2026-04-10 15:03 58.89365 -137.40635 27398 ft 486 kts 113°
2026-04-10 15:03 58.87851 -137.34843 26795 ft 480 kts 113°
2026-04-10 15:04 58.86353 -137.29129 26203 ft 474 kts 114°
2026-04-10 15:04 58.84872 -137.23482 25609 ft 469 kts 114°
2026-04-10 15:04 58.83426 -137.17988 25020 ft 464 kts 114°
2026-04-10 15:04 58.81970 -137.12480 24430 ft 458 kts 114°
2026-04-10 15:05 58.79100 -137.01633 23194 ft 449 kts 115°
2026-04-10 15:05 58.77689 -136.96304 22578 ft 443 kts 116°
2026-04-10 15:05 58.76288 -136.91069 22002 ft 436 kts 116°
2026-04-10 15:06 58.74910 -136.85913 21415 ft 430 kts 116°
2026-04-10 15:06 58.73570 -136.80899 20859 ft 424 kts 116°
2026-04-10 15:06 58.72230 -136.75889 20282 ft 418 kts 116°
2026-04-10 15:06 58.70904 -136.70947 19716 ft 413 kts 116°
2026-04-10 15:07 58.69590 -136.66068 19139 ft 408 kts 116°
2026-04-10 15:07 58.68289 -136.61244 18571 ft 404 kts 116°
2026-04-10 15:07 58.66998 -136.56477 17955 ft 399 kts 116°
2026-04-10 15:07 58.65729 -136.51792 17377 ft 393 kts 116°
2026-04-10 15:08 58.64474 -136.47167 16821 ft 387 kts 116°
2026-04-10 15:08 58.63235 -136.42615 16279 ft 382 kts 116°
2026-04-10 15:08 58.62021 -136.38158 15573 ft 382 kts 116°
2026-04-10 15:08 58.60798 -136.33679 15055 ft 376 kts 116°
2026-04-10 15:09 58.59591 -136.29264 14529 ft 371 kts 116°
2026-04-10 15:09 58.58396 -136.24908 14003 ft 367 kts 116°
2026-04-10 15:09 58.57211 -136.20606 13423 ft 363 kts 116°
2026-04-10 15:09 58.56041 -136.16369 12910 ft 357 kts 116°
2026-04-10 15:10 58.54890 -136.12200 12391 ft 351 kts 116°
2026-04-10 15:10 58.53757 -136.08098 11877 ft 346 kts 116°
2026-04-10 15:10 58.52643 -136.04071 11363 ft 341 kts 116°
2026-04-10 15:10 58.51556 -136.00148 10861 ft 336 kts 116°
2026-04-10 15:11 58.50477 -135.96263 10619 ft 323 kts 116°
2026-04-10 15:11 58.49444 -135.92561 10506 ft 308 kts 116°
2026-04-10 15:11 58.48460 -135.89039 10405 ft 293 kts 116°
2026-04-10 15:11 58.47521 -135.85681 10298 ft 280 kts 116°
2026-04-10 15:12 58.46625 -135.82477 10163 ft 267 kts 115°
2026-04-10 15:12 58.45761 -135.79388 10055 ft 262 kts 115°
2026-04-10 15:12 58.44909 -135.76334 9755 ft 270 kts 115°
2026-04-10 15:12 58.44010 -135.73107 9610 ft 278 kts 116°
2026-04-10 15:13 58.43100 -135.69860 9347 ft 276 kts 116°
2026-04-10 15:13 58.42191 -135.66628 8829 ft 277 kts 116°
2026-04-10 15:13 58.41286 -135.63421 8455 ft 273 kts 115°
2026-04-10 15:13 58.40386 -135.60239 8140 ft 272 kts 115°
2026-04-10 15:14 58.39490 -135.57075 7815 ft 270 kts 115°
2026-04-10 15:14 58.38600 -135.53931 7508 ft 269 kts 115°
2026-04-10 15:14 58.37726 -135.50848 7196 ft 267 kts 115°
2026-04-10 15:14 58.36868 -135.47729 6996 ft 264 kts 111°
2026-04-10 15:15 58.36366 -135.44449 6791 ft 254 kts 95°
2026-04-10 15:15 58.36222 -135.41121 6628 ft 255 kts 90°
2026-04-10 15:15 58.36158 -135.37729 6356 ft 256 kts 89°
2026-04-10 15:15 58.36115 -135.34346 6041 ft 255 kts 89°
2026-04-10 15:16 58.36069 -135.30963 5718 ft 256 kts 89°
2026-04-10 15:16 58.36023 -135.27566 5418 ft 257 kts 89°
2026-04-10 15:16 58.35979 -135.24157 5112 ft 257 kts 89°
2026-04-10 15:16 58.35936 -135.20800 5001 ft 257 kts 89°
2026-04-10 15:17 58.35892 -135.17400 4942 ft 255 kts 89°
2026-04-10 15:17 58.35849 -135.14014 4466 ft 258 kts 89°
2026-04-10 15:17 58.35806 -135.10605 4085 ft 254 kts 89°
2026-04-10 15:17 58.35759 -135.07316 3926 ft 243 kts 89°
2026-04-10 15:18 58.35714 -135.04175 3797 ft 232 kts 89°
2026-04-10 15:18 58.35671 -135.01183 3689 ft 220 kts 89°
2026-04-10 15:18 58.35645 -134.98342 3593 ft 209 kts 87°
2026-04-10 15:18 58.35662 -134.95702 3515 ft 196 kts 86°
2026-04-10 15:19 58.35681 -134.93201 3435 ft 181 kts 86°
2026-04-10 15:19 58.35695 -134.90920 3313 ft 163 kts 86°
2026-04-10 15:19 58.35706 -134.88846 3110 ft 151 kts 86°
2026-04-10 15:19 58.35717 -134.86869 2886 ft 147 kts 86°
2026-04-10 15:20 58.35726 -134.84987 2708 ft 136 kts 86°
2026-04-10 15:20 58.35738 -134.83240 2702 ft 132 kts 86°
2026-04-10 15:20 58.35745 -134.81477 2700 ft 134 kts 87°
2026-04-10 15:20 58.35750 -134.79732 2688 ft 133 kts 87°
2026-04-10 15:21 58.35756 -134.77955 2596 ft 137 kts 87°
2026-04-10 15:21 58.35842 -134.76146 2272 ft 137 kts 78°
2026-04-10 15:21 58.36003 -134.74343 1920 ft 139 kts 77°
2026-04-10 15:21 58.36196 -134.72527 1558 ft 141 kts 76°
2026-04-10 15:22 58.36420 -134.70719 1288 ft 135 kts 75°
2026-04-10 15:22 58.36635 -134.69018 1157 ft 130 kts 76°
2026-04-10 15:22 58.36674 -134.67326 1180 ft 128 kts 86°
2026-04-10 15:22 58.36655 -134.65546 1085 ft 138 kts 89°
2026-04-10 15:23 58.36588 -134.63801 1028 ft 131 kts 102°
2026-04-10 15:23 58.36528 -134.61997 1153 ft 138 kts 88°
2026-04-10 15:23 58.36406 -134.60221 1283 ft 137 kts 110°
2026-04-10 15:23 58.36055 -134.58521 1670 ft 140 kts 109°
2026-04-10 15:24 58.35696 -134.56778 2380 ft 141 kts 107°
2026-04-10 15:24 58.35341 -134.55050 3125 ft 140 kts 108°
2026-04-10 15:24 58.34983 -134.53332 3650 ft 140 kts 109°
2026-04-10 15:24 58.34656 -134.51599 4166 ft 142 kts 109°
2026-04-10 15:25 58.34339 -134.49812 4992 ft 143 kts 106°
2026-04-10 15:25 58.33984 -134.48038 5698 ft 144 kts 107°
2026-04-10 15:25 58.33606 -134.46271 5983 ft 145 kts 108°
2026-04-10 15:25 58.33230 -134.44495 6001 ft 145 kts 108°
2026-04-10 15:26 58.32851 -134.42712 6003 ft 145 kts 108°
2026-04-10 15:26 58.32462 -134.40935 5998 ft 145 kts 109°
2026-04-10 15:26 58.32057 -134.39171 5989 ft 146 kts 112°
2026-04-10 15:26 58.31374 -134.37707 5982 ft 158 kts 143°
2026-04-10 15:27 58.30178 -134.37338 5966 ft 196 kts 193°
2026-04-10 15:27 58.29082 -134.38826 5977 ft 203 kts 239°
2026-04-10 15:27 58.28832 -134.41376 5991 ft 198 kts 286°
2026-04-10 15:27 58.29475 -134.43626 5995 ft 194 kts 311°
2026-04-10 15:28 58.30174 -134.45857 5999 ft 199 kts 298°
2026-04-10 15:28 58.30765 -134.48353 6004 ft 223 kts 296°
2026-04-10 15:28 58.31432 -134.51314 5980 ft 259 kts 295°
2026-04-10 15:28 58.32140 -134.54563 5974 ft 270 kts 295°
2026-04-10 15:29 58.32839 -134.57839 5989 ft 272 kts 295°
2026-04-10 15:29 58.33551 -134.61161 5777 ft 272 kts 292°
2026-04-10 15:29 58.34261 -134.64489 5853 ft 271 kts 292°
2026-04-10 15:29 58.34968 -134.67803 5852 ft 270 kts 292°
2026-04-10 15:30 58.35671 -134.71102 5614 ft 269 kts 292°
2026-04-10 15:30 58.36373 -134.74404 5204 ft 267 kts 292°
2026-04-10 15:30 58.37056 -134.77621 5022 ft 256 kts 292°
2026-04-10 15:30 58.37709 -134.80698 4878 ft 245 kts 291°
2026-04-10 15:31 58.38322 -134.83597 4737 ft 231 kts 291°
2026-04-10 15:31 58.39176 -134.85929 4609 ft 202 kts 322°
2026-04-10 15:31 58.40369 -134.86575 4686 ft 162 kts 10°
2026-04-10 15:31 58.41203 -134.85488 4636 ft 145 kts 61°
2026-04-10 15:32 58.41277 -134.83509 4552 ft 154 kts 108°
2026-04-10 15:32 58.40719 -134.81811 4244 ft 160 kts 127°
2026-04-10 15:32 58.39963 -134.80073 3573 ft 182 kts 132°
2026-04-10 15:32 58.39128 -134.78139 2831 ft 194 kts 127°
2026-04-10 15:33 58.38442 -134.75962 2336 ft 189 kts 116°
2026-04-10 15:33 58.37940 -134.73721 1879 ft 183 kts 111°
2026-04-10 15:33 58.37547 -134.71454 1467 ft 177 kts 107°
2026-04-10 15:33 58.37181 -134.69249 1091 ft 172 kts 109°
2026-04-10 15:34 58.36795 -134.67164 830 ft 161 kts 110°
2026-04-10 15:34 58.36493 -134.65176 634 ft 150 kts 103°
2026-04-10 15:34 58.36272 -134.63318 452 ft 139 kts 103°
2026-04-10 15:34 58.36050 -134.61555 234 ft 133 kts 104°
2026-04-10 15:35 58.35808 -134.59884 67 ft 130 kts 106°
2026-04-10 15:35 58.35592 -134.58325 38 ft 109 kts 104°
2026-04-10 15:35 58.35481 -134.57535 41 ft 21 kts 105°
2026-04-10 15:35 58.35467 -134.57327 42 ft 13 kts 66°
2026-04-10 15:36 58.35542 -134.57298 41 ft 12 kts 332°
2026-04-10 15:36 58.35583 -134.57451 41 ft 14 kts 288°
2026-04-10 15:36 58.35610 -134.57643 41 ft 16 kts 282°
2026-04-10 15:36 58.35639 -134.57860 40 ft 18 kts 286°
2026-04-10 15:37 58.35673 -134.58096 40 ft 19 kts 284°
2026-04-10 15:37 58.35708 -134.58355 40 ft 21 kts 284°
2026-04-10 15:37 58.35734 -134.58542 40 ft 8 kts 285°
2026-04-10 15:37 58.35750 -134.58658 40 ft 10 kts 284°
2026-04-10 15:38 58.35771 -134.58808 40 ft 13 kts 285°
2026-04-10 15:38 58.35775 -134.58840 40 ft 0 kts 285°